SPRKR LHBP-LIPQ

Flight info

Callsign SPRKR
Flight time 1h 6m
Altitude 34000
Route GILEP DCT ZOLKU/N0432F430 DCT SUNIS DCT RADLY DCT RIFEN
Aircraft C25C/M-SDE2E3FGHRWXY/LB1

Departure

Time 2026-04-20 06:00
Airport Budapest Liszt Ferenc International Airport (LHBP)

Arrival

Time 2026-04-20 07:06
Airport Trieste Airport (LIPQ)
Time Latitude Longitude Altitude Speed Heading
2026-04-20 05:58 47.43463 19.25558 451 ft 0 kts 222°
2026-04-20 05:58 47.43358 19.25419 451 ft 37 kts 224°
2026-04-20 05:59 47.43139 19.25116 451 ft 35 kts 224°
2026-04-20 05:59 47.43112 19.24929 451 ft 22 kts 307°
2026-04-20 05:59 47.43319 19.24584 447 ft 91 kts 312°
2026-04-20 05:59 47.43983 19.23514 519 ft 179 kts 312°
2026-04-20 06:00 47.44859 19.22058 1313 ft 211 kts 311°
2026-04-20 06:00 47.45869 19.20484 2893 ft 193 kts 315°
2026-04-20 06:00 47.46868 19.19182 4460 ft 219 kts 320°
2026-04-20 06:00 47.48370 19.17510 4057 ft 321 kts 325°
2026-04-20 06:01 47.50355 19.15693 5068 ft 349 kts 329°
2026-04-20 06:01 47.52570 19.13750 5369 ft 390 kts 328°
2026-04-20 06:01 47.54979 19.11596 5704 ft 417 kts 328°
2026-04-20 06:01 47.57521 19.09330 6062 ft 434 kts 328°
2026-04-20 06:02 47.59193 19.07651 6306 ft 439 kts 322°
2026-04-20 06:02 47.62021 19.03899 6730 ft 381 kts 316°
2026-04-20 06:02 47.63250 19.02102 6897 ft 356 kts 314°
2026-04-20 06:02 47.65427 18.98807 7160 ft 322 kts 314°
2026-04-20 06:03 47.66938 18.96481 7312 ft 305 kts 314°
2026-04-20 06:03 47.68386 18.94258 7425 ft 295 kts 314°
2026-04-20 06:03 47.69331 18.92804 7407 ft 293 kts 314°
2026-04-20 06:03 47.70634 18.90521 7396 ft 288 kts 298°
2026-04-20 06:04 47.71284 18.87733 7403 ft 285 kts 285°
2026-04-20 06:04 47.71777 18.84895 7403 ft 282 kts 283°
2026-04-20 06:04 47.72220 18.82061 7401 ft 281 kts 283°
2026-04-20 06:04 47.72654 18.79246 7405 ft 279 kts 283°
2026-04-20 06:05 47.73081 18.76435 7400 ft 279 kts 283°
2026-04-20 06:05 47.73507 18.73624 7401 ft 278 kts 282°
2026-04-20 06:05 47.73934 18.70828 7402 ft 277 kts 282°
2026-04-20 06:05 47.74355 18.68038 7400 ft 277 kts 282°
2026-04-20 06:06 47.74780 18.65247 7403 ft 277 kts 282°
2026-04-20 06:06 47.75203 18.62456 7403 ft 276 kts 282°
2026-04-20 06:06 47.75623 18.59671 7399 ft 276 kts 282°
2026-04-20 06:06 47.75652 18.56862 7397 ft 276 kts 253°
2026-04-20 06:07 47.74652 18.54453 7402 ft 275 kts 231°
2026-04-20 06:07 47.73370 18.52392 7403 ft 275 kts 222°
2026-04-20 06:07 47.71930 18.50606 7721 ft 263 kts 219°
2026-04-20 06:07 47.70534 18.48943 8087 ft 251 kts 218°
2026-04-20 06:08 47.69188 18.47370 8450 ft 242 kts 219°
2026-04-20 06:08 47.67892 18.45858 8810 ft 234 kts 218°
2026-04-20 06:08 47.66627 18.44383 9172 ft 227 kts 218°
2026-04-20 06:08 47.65399 18.42955 9536 ft 222 kts 218°
2026-04-20 06:09 47.64200 18.41562 10208 ft 216 kts 223°
2026-04-20 06:09 47.62981 18.40292 10564 ft 212 kts 219°
2026-04-20 06:09 47.61749 18.39125 10925 ft 208 kts 218°
2026-04-20 06:09 47.60538 18.38006 11283 ft 203 kts 219°
2026-04-20 06:10 47.59315 18.36884 11654 ft 217 kts 218°
2026-04-20 06:10 47.57959 18.35613 12053 ft 243 kts 218°
2026-04-20 06:10 47.56469 18.34194 12464 ft 265 kts 218°
2026-04-20 06:10 47.54868 18.32645 12888 ft 284 kts 218°
2026-04-20 06:11 47.53167 18.30993 13328 ft 300 kts 219°
2026-04-20 06:11 47.51388 18.29256 13762 ft 313 kts 218°
2026-04-20 06:11 47.49581 18.27378 14149 ft 319 kts 226°
2026-04-20 06:11 47.48231 18.24776 14528 ft 321 kts 241°
2026-04-20 06:12 47.47088 18.21906 14916 ft 327 kts 244°
2026-04-20 06:12 47.45993 18.18928 15305 ft 332 kts 245°
2026-04-20 06:12 47.44908 18.15882 15709 ft 337 kts 245°
2026-04-20 06:12 47.43827 18.12816 16244 ft 337 kts 245°
2026-04-20 06:13 47.42735 18.09696 16876 ft 345 kts 245°
2026-04-20 06:13 47.41624 18.06505 17533 ft 353 kts 245°
2026-04-20 06:13 47.40498 18.03240 18198 ft 360 kts 245°
2026-04-20 06:13 47.39351 17.99909 18791 ft 367 kts 245°
2026-04-20 06:14 47.38196 17.96527 19379 ft 371 kts 245°
2026-04-20 06:14 47.37045 17.93149 19974 ft 374 kts 245°
2026-04-20 06:14 47.35877 17.89707 20591 ft 377 kts 245°
2026-04-20 06:14 47.34704 17.86242 21218 ft 375 kts 245°
2026-04-20 06:15 47.33568 17.82871 21848 ft 359 kts 245°
2026-04-20 06:15 47.32494 17.79695 22477 ft 339 kts 245°
2026-04-20 06:15 47.31460 17.76640 23132 ft 324 kts 245°
2026-04-20 06:15 47.30469 17.73689 23719 ft 320 kts 245°
2026-04-20 06:16 47.29463 17.70695 23754 ft 332 kts 245°
2026-04-20 06:16 47.28427 17.67598 23786 ft 341 kts 245°
2026-04-20 06:16 47.27372 17.64456 24055 ft 342 kts 245°
2026-04-20 06:16 47.26317 17.61316 24310 ft 343 kts 245°
2026-04-20 06:17 47.25252 17.58162 24533 ft 345 kts 245°
2026-04-20 06:17 47.24184 17.54993 24759 ft 346 kts 245°
2026-04-20 06:17 47.23106 17.51812 24967 ft 347 kts 245°
2026-04-20 06:17 47.22026 17.48626 25194 ft 348 kts 245°
2026-04-20 06:18 47.20940 17.45437 25449 ft 349 kts 245°
2026-04-20 06:18 47.19846 17.42228 25646 ft 352 kts 245°
2026-04-20 06:18 47.18744 17.39009 25833 ft 352 kts 245°
2026-04-20 06:18 47.17638 17.35790 25998 ft 353 kts 245°
2026-04-20 06:19 47.16529 17.32564 26149 ft 354 kts 245°
2026-04-20 06:19 47.15413 17.29332 26295 ft 355 kts 245°
2026-04-20 06:19 47.14291 17.26093 26431 ft 356 kts 245°
2026-04-20 06:19 47.13182 17.22893 26561 ft 357 kts 245°
2026-04-20 06:20 47.12036 17.19608 26688 ft 358 kts 245°
2026-04-20 06:20 47.10902 17.16350 26806 ft 358 kts 245°
2026-04-20 06:20 47.09776 17.13139 26930 ft 359 kts 245°
2026-04-20 06:20 47.08636 17.09885 27047 ft 359 kts 245°
2026-04-20 06:21 47.07489 17.06621 27162 ft 360 kts 245°
2026-04-20 06:21 47.06335 17.03349 27260 ft 361 kts 245°
2026-04-20 06:21 47.05180 17.00076 27366 ft 361 kts 245°
2026-04-20 06:21 47.04020 16.96807 27465 ft 361 kts 245°
2026-04-20 06:22 47.02855 16.93532 27548 ft 362 kts 245°
2026-04-20 06:22 47.01689 16.90263 27635 ft 362 kts 245°
2026-04-20 06:22 47.00517 16.86988 27724 ft 363 kts 245°
2026-04-20 06:22 46.99337 16.83708 27801 ft 363 kts 245°
2026-04-20 06:23 46.98161 16.80441 27873 ft 363 kts 245°
2026-04-20 06:23 46.96987 16.77200 27933 ft 364 kts 245°
2026-04-20 06:23 46.95796 16.73923 27998 ft 364 kts 245°
2026-04-20 06:23 46.94604 16.70649 28055 ft 364 kts 245°
2026-04-20 06:24 46.92205 16.64104 28159 ft 365 kts 245°
2026-04-20 06:24 46.89795 16.57575 28243 ft 365 kts 245°
2026-04-20 06:25 46.87367 16.51043 28336 ft 365 kts 245°
2026-04-20 06:25 46.84943 16.44559 28400 ft 366 kts 245°
2026-04-20 06:26 46.82488 16.38044 28462 ft 366 kts 245°
2026-04-20 06:26 46.80021 16.31539 28508 ft 367 kts 245°
2026-04-20 06:27 46.77539 16.25037 28549 ft 367 kts 245°
2026-04-20 06:27 46.75042 16.18539 28587 ft 367 kts 245°
2026-04-20 06:28 46.72537 16.12056 28614 ft 368 kts 245°
2026-04-20 06:28 46.70009 16.05566 28641 ft 368 kts 245°
2026-04-20 06:29 46.67472 15.99095 28673 ft 368 kts 245°
2026-04-20 06:29 46.64917 15.92631 28692 ft 368 kts 245°
2026-04-20 06:30 46.62347 15.86181 28716 ft 368 kts 245°
2026-04-20 06:30 46.59767 15.79748 28749 ft 368 kts 245°
2026-04-20 06:31 46.57171 15.73327 28783 ft 368 kts 245°
2026-04-20 06:31 46.54557 15.66911 28807 ft 368 kts 245°
2026-04-20 06:32 46.51931 15.60520 28801 ft 369 kts 245°
2026-04-20 06:32 46.49287 15.54144 28755 ft 368 kts 245°
2026-04-20 06:33 46.46659 15.47828 28738 ft 368 kts 245°
2026-04-20 06:33 46.43991 15.41483 28771 ft 368 kts 245°
2026-04-20 06:34 46.41310 15.35153 28783 ft 368 kts 245°
2026-04-20 06:35 46.37256 15.25700 28773 ft 368 kts 245°
2026-04-20 06:35 46.34545 15.19418 28757 ft 368 kts 245°
2026-04-20 06:36 46.31825 15.13136 28759 ft 368 kts 245°
2026-04-20 06:36 46.29094 15.06864 28774 ft 368 kts 245°
2026-04-20 06:37 46.26355 15.00603 28775 ft 369 kts 245°
2026-04-20 06:37 46.23604 14.94346 28783 ft 369 kts 245°
2026-04-20 06:38 46.20841 14.88107 28846 ft 369 kts 245°
2026-04-20 06:38 46.18085 14.81890 28790 ft 370 kts 245°
2026-04-20 06:38 46.16704 14.78781 29033 ft 365 kts 245°
2026-04-20 06:39 46.15332 14.75731 29338 ft 360 kts 245°
2026-04-20 06:39 46.13970 14.72738 29643 ft 355 kts 245°
2026-04-20 06:39 46.12606 14.69791 29949 ft 351 kts 245°
2026-04-20 06:39 46.11246 14.66887 30217 ft 348 kts 244°
2026-04-20 06:40 46.09870 14.63962 29980 ft 358 kts 245°
2026-04-20 06:40 46.08458 14.60934 29520 ft 370 kts 244°
2026-04-20 06:40 46.07015 14.57790 29069 ft 380 kts 244°
2026-04-20 06:40 46.05557 14.54568 28628 ft 388 kts 244°
2026-04-20 06:41 46.04082 14.51260 28195 ft 395 kts 244°
2026-04-20 06:41 46.02618 14.47935 27770 ft 400 kts 244°
2026-04-20 06:41 46.01127 14.44505 27351 ft 404 kts 244°
2026-04-20 06:41 45.99643 14.41051 26932 ft 407 kts 244°
2026-04-20 06:42 45.98164 14.37584 26527 ft 409 kts 244°
2026-04-20 06:42 45.96684 14.34067 26121 ft 411 kts 244°
2026-04-20 06:42 45.95227 14.30591 25727 ft 391 kts 244°
2026-04-20 06:42 45.93872 14.27373 25321 ft 363 kts 244°
2026-04-20 06:43 45.92615 14.24413 25029 ft 339 kts 244°
2026-04-20 06:43 45.91426 14.21636 24946 ft 314 kts 244°
2026-04-20 06:43 45.90311 14.19072 24932 ft 292 kts 244°
2026-04-20 06:43 45.89257 14.16691 24929 ft 274 kts 244°
2026-04-20 06:44 45.88251 14.14458 24935 ft 259 kts 244°
2026-04-20 06:44 45.87286 14.12355 24930 ft 246 kts 244°
2026-04-20 06:44 45.86352 14.10357 24927 ft 235 kts 244°
2026-04-20 06:44 45.85453 14.08455 24924 ft 226 kts 244°
2026-04-20 06:45 45.84582 14.06631 24929 ft 218 kts 244°
2026-04-20 06:45 45.83734 14.04873 24928 ft 211 kts 244°
2026-04-20 06:45 45.82902 14.03171 24926 ft 204 kts 244°
2026-04-20 06:45 45.82095 14.01528 24929 ft 199 kts 244°
2026-04-20 06:46 45.81299 13.99923 24929 ft 195 kts 244°
2026-04-20 06:46 45.80516 13.98353 24932 ft 193 kts 244°
2026-04-20 06:46 45.79738 13.96800 24931 ft 190 kts 244°
2026-04-20 06:46 45.78976 13.95288 24931 ft 185 kts 244°
2026-04-20 06:47 45.78216 13.93787 24650 ft 195 kts 244°
2026-04-20 06:47 45.77411 13.92139 24270 ft 209 kts 244°
2026-04-20 06:47 45.76585 13.90406 23906 ft 208 kts 244°
2026-04-20 06:47 45.75784 13.88719 23514 ft 206 kts 244°
2026-04-20 06:48 45.74967 13.86956 23082 ft 217 kts 244°
2026-04-20 06:48 45.74125 13.85108 22653 ft 226 kts 244°
2026-04-20 06:48 45.73538 13.83812 22394 ft 231 kts 244°
2026-04-20 06:48 45.72671 13.81873 21979 ft 238 kts 244°
2026-04-20 06:49 45.71775 13.79858 21573 ft 243 kts 244°
2026-04-20 06:49 45.70868 13.77799 21174 ft 246 kts 244°
2026-04-20 06:49 45.69951 13.75710 20775 ft 249 kts 244°
2026-04-20 06:49 45.69029 13.73595 20377 ft 252 kts 244°
2026-04-20 06:50 45.68097 13.71458 19986 ft 254 kts 244°
2026-04-20 06:50 45.67164 13.69305 19598 ft 255 kts 244°
2026-04-20 06:50 45.66233 13.67143 19212 ft 256 kts 244°
2026-04-20 06:50 45.65296 13.64969 18831 ft 257 kts 244°
2026-04-20 06:51 45.64363 13.62792 18452 ft 257 kts 244°
2026-04-20 06:51 45.63423 13.60588 17857 ft 263 kts 244°
2026-04-20 06:51 45.62470 13.58331 17239 ft 268 kts 244°
2026-04-20 06:51 45.61509 13.56033 16649 ft 271 kts 244°
2026-04-20 06:52 45.60543 13.53710 16062 ft 273 kts 244°
2026-04-20 06:52 45.59578 13.51362 15507 ft 269 kts 244°
2026-04-20 06:52 45.58770 13.49472 15024 ft 185 kts 244°
2026-04-20 06:52 45.58142 13.48089 14453 ft 153 kts 244°
2026-04-20 06:53 45.57586 13.46880 13882 ft 143 kts 244°
2026-04-20 06:53 45.57044 13.45707 13228 ft 140 kts 244°
2026-04-20 06:53 45.56514 13.44544 12619 ft 139 kts 244°
2026-04-20 06:53 45.56000 13.43386 12013 ft 137 kts 244°
2026-04-20 06:54 45.55484 13.42201 11402 ft 150 kts 244°
2026-04-20 06:54 45.54927 13.40863 10825 ft 162 kts 244°
2026-04-20 06:54 45.54352 13.39435 10266 ft 168 kts 244°
2026-04-20 06:54 45.53772 13.37969 9704 ft 171 kts 244°
2026-04-20 06:55 45.53191 13.36473 9107 ft 173 kts 244°
2026-04-20 06:55 45.52619 13.34957 8522 ft 174 kts 244°
2026-04-20 06:55 45.52051 13.33427 7944 ft 175 kts 244°
2026-04-20 06:55 45.51491 13.31874 7380 ft 176 kts 244°
2026-04-20 06:56 45.51020 13.30261 6801 ft 177 kts 262°
2026-04-20 06:56 45.51214 13.28547 6242 ft 179 kts 283°
2026-04-20 06:56 45.51529 13.26830 5659 ft 180 kts 284°
2026-04-20 06:56 45.51866 13.25108 5087 ft 180 kts 284°
2026-04-20 06:57 45.52208 13.23387 4507 ft 181 kts 284°
2026-04-20 06:57 45.52547 13.21658 3928 ft 181 kts 284°
2026-04-20 06:57 45.52997 13.19982 3339 ft 183 kts 307°
2026-04-20 06:57 45.54060 13.19006 2748 ft 184 kts 336°
2026-04-20 06:58 45.55229 13.18269 2177 ft 183 kts 337°
2026-04-20 06:58 45.56395 13.17561 1595 ft 181 kts 337°
2026-04-20 06:58 45.57554 13.16865 1015 ft 181 kts 337°
2026-04-20 06:58 45.58710 13.16168 439 ft 180 kts 337°
2026-04-20 06:59 45.59840 13.15476 285 ft 154 kts 334°
2026-04-20 06:59 45.60628 13.14757 727 ft 128 kts 321°
2026-04-20 06:59 45.61498 13.13780 549 ft 208 kts 321°
2026-04-20 06:59 45.62740 13.12296 1072 ft 250 kts 319°
2026-04-20 07:00 45.64115 13.10582 1715 ft 267 kts 319°
2026-04-20 07:00 45.65583 13.09307 3524 ft 217 kts 339°
2026-04-20 07:00 45.67292 13.08388 2730 ft 294 kts 343°
2026-04-20 07:00 45.69127 13.07789 1907 ft 254 kts 351°
2026-04-20 07:01 45.70926 13.07902 1249 ft 245 kts 14°
2026-04-20 07:01 45.72293 13.08837 1754 ft 203 kts 37°
2026-04-20 07:01 45.73334 13.10342 2226 ft 223 kts 56°
2026-04-20 07:01 45.74056 13.12487 2534 ft 263 kts 71°
2026-04-20 07:02 45.74610 13.15302 1806 ft 305 kts 80°
2026-04-20 07:02 45.74893 13.18318 1979 ft 305 kts 83°
2026-04-20 07:02 45.75209 13.21359 1842 ft 314 kts 83°
2026-04-20 07:02 45.75473 13.24515 1605 ft 319 kts 84°
2026-04-20 07:03 45.75771 13.27612 1605 ft 303 kts 81°
2026-04-20 07:03 45.76119 13.30286 1536 ft 247 kts 78°
2026-04-20 07:03 45.76456 13.32395 2080 ft 201 kts 76°
2026-04-20 07:03 45.76755 13.34340 2016 ft 199 kts 83°
2026-04-20 07:04 45.76818 13.36298 2004 ft 195 kts 90°
2026-04-20 07:04 45.76853 13.38259 1830 ft 198 kts 85°
2026-04-20 07:04 45.77141 13.40321 1267 ft 215 kts 78°
2026-04-20 07:04 45.77357 13.42330 1356 ft 198 kts 85°
2026-04-20 07:05 45.77317 13.44346 821 ft 222 kts 101°
2026-04-20 07:05 45.77012 13.46619 1243 ft 231 kts 91°
2026-04-20 07:05 45.77389 13.48802 1957 ft 237 kts 63°
2026-04-20 07:05 45.78272 13.50984 1223 ft 269 kts 58°
2026-04-20 07:06 45.78760 13.52211 33 ft 24 kts 139°
2026-04-20 07:06 45.78672 13.52278 6 ft 11 kts 155°